Ciampino, Italy

7:31 AM CET on February 28, 2017 (GMT +0100)
Ciampino

Weather History for LIRA - September, 2013

Change the Weather History Date:

Thursday, September 5, 2013

  Actual Average Record
Temperature  
Mean Temperature 76 °F -  
Max Temperature 87 °F 78 °F 89 °F (2006)
Min Temperature 66 °F 58 °F 55 °F (2000)
Cooling Degree Days 12    
Growing Degree Days 26 (Base 50)    
Moisture  
Dew Point 61 °F    
Average Humidity 64    
Maximum Humidity 83    
Minimum Humidity 35    
Precipitation  
Precipitation 0.00 in 0.09 in - ()
Sea Level Pressure  
Sea Level Pressure 30.02 in    
Wind  
Wind Speed 3 mph ()    
Max Wind Speed 13 mph    
Max Gust Speed 24 mph    
Visibility 6.2 miles    
Events      
Averages and records for this station are not official NWS values.
T = Trace of Precipitation, MM = Missing Value Source: Averaged Metar Reports

Daily Weather History Graph

Daily Weather History Graph

Search for Another Location

Airport or City:

Trip Planner

Search our weather history database for the weather conditions in past years. The results will help you decide how hot, cold, wet, or windy it might be!

Date:

Astronomy

Sep. 05, 2013 Rise Set
Actual Time 6:39 AM CEST 7:36 PM CEST
Civil Twilight 6:11 AM CEST 8:04 PM CEST
Nautical Twilight 5:37 AM CEST 8:38 PM CEST
Astronomical Twilight 5:02 AM CEST 9:13 PM CEST
Moon 6:35 AM CEST (9/5) 7:17 PM CEST (9/5)
Length of Visible Light 13h 53m
Length of Day
12h 56m
Waning Crescent, 0% of the Moon is Illuminated
Sep 5
Waning Crescent
Sep 5
New
Sep 12
First Quarter
Sep 19
Full
Sep 27
Last Quarter

Hourly Weather History & Observations

Time (CEST) Temp. Heat Index Dew Point Humidity Pressure Visibility Wind Dir Wind Speed Gust Speed Precip Events Conditions
12:15 AM 71.6 °F - 57.2 °F 60% 30.12 in - East 2.3 mph - N/A   Clear
12:45 AM 68.0 °F - 57.2 °F 68% 30.12 in - ENE 4.6 mph - N/A   Clear
1:15 AM 68.0 °F - 59.0 °F 73% 30.09 in - ENE 4.6 mph - N/A   Clear
1:45 AM 68.0 °F - 57.2 °F 68% 30.09 in - ENE 2.3 mph - N/A   Clear
2:15 AM 68.0 °F - 57.2 °F 68% 30.09 in - Calm Calm - N/A   Clear
2:45 AM 68.0 °F - 57.2 °F 68% 30.09 in - NNE 2.3 mph - N/A   Clear
3:15 AM 68.0 °F - 55.4 °F 64% 30.09 in - NNE 2.3 mph - N/A   Clear
3:45 AM 66.2 °F - 57.2 °F 73% 30.09 in - ENE 2.3 mph - N/A   Clear
4:15 AM 66.2 °F - 59.0 °F 78% 30.06 in - NE 2.3 mph - N/A   Clear
4:45 AM 66.2 °F - 59.0 °F 78% 30.06 in - ENE 1.2 mph - N/A   Clear
5:15 AM 66.2 °F - 59.0 °F 78% 30.06 in - East 2.3 mph - N/A   Clear
5:45 AM 66.2 °F - 60.8 °F 83% 30.04 in - NE 3.5 mph - N/A   Clear
6:15 AM 66.2 °F - 60.8 °F 83% 30.06 in - NE 2.3 mph - N/A   Clear
6:45 AM 66.2 °F - 60.8 °F 83% 30.06 in - NNE 3.5 mph - N/A   Clear
7:15 AM 66.2 °F - 60.8 °F 83% 30.06 in - NE 2.3 mph - N/A   Clear
7:45 AM 68.0 °F - 62.6 °F 83% 30.04 in - ESE 2.3 mph - N/A   Clear
8:15 AM 68.0 °F - 60.8 °F 78% 30.04 in - NNE 1.2 mph - N/A   Clear
8:45 AM 69.8 °F - 60.8 °F 73% 30.04 in - North 1.2 mph - N/A   Clear
9:15 AM 71.6 °F - 60.8 °F 69% 30.06 in - North 3.5 mph - N/A   Clear
9:45 AM 71.6 °F - 57.2 °F 60% 30.06 in - North 2.3 mph - N/A   Clear
10:15 AM 77.0 °F - 60.8 °F 57% 30.06 in - NNE 3.5 mph - N/A   Clear
10:45 AM 78.8 °F - 60.8 °F 54% 30.06 in - NE 1.2 mph - N/A   Clear
11:15 AM 82.4 °F 82.0 °F 57.2 °F 42% 30.04 in - SSW 4.6 mph - N/A   Clear
11:45 AM 84.2 °F 83.0 °F 55.4 °F 37% 30.04 in - South 5.8 mph - N/A   Clear
12:15 PM 84.2 °F 83.0 °F 55.4 °F 37% 30.04 in - South 4.6 mph - N/A   Clear
12:45 PM 86.0 °F 84.5 °F 55.4 °F 35% 30.01 in - SSE 4.6 mph - N/A   Clear
1:15 PM 86.0 °F 84.5 °F 55.4 °F 35% 30.01 in 6.2 mi South 8.1 mph - N/A   Partly Cloudy
1:45 PM 86.0 °F 84.5 °F 55.4 °F 35% 30.01 in 6.2 mi South 4.6 mph - N/A   Partly Cloudy
2:15 PM 86.0 °F 84.9 °F 57.2 °F 37% 29.98 in 6.2 mi ESE 3.5 mph - N/A   Partly Cloudy
2:45 PM 87.8 °F 86.5 °F 57.2 °F 35% 29.98 in 6.2 mi SSW 4.6 mph - N/A   Partly Cloudy
3:15 PM 86.0 °F 86.6 °F 62.6 °F 45% 29.98 in 6.2 mi SSW 12.7 mph 24.2 mph N/A   Partly Cloudy
3:45 PM 84.2 °F 85.6 °F 64.4 °F 51% 29.98 in 6.2 mi SSW 12.7 mph - N/A   Partly Cloudy
4:15 PM 84.2 °F 86.6 °F 66.2 °F 55% 29.98 in 6.2 mi SW 11.5 mph - N/A   Partly Cloudy
4:45 PM 82.4 °F 85.4 °F 68.0 °F 62% 29.98 in 6.2 mi SW 9.2 mph - N/A   Partly Cloudy
5:15 PM 82.4 °F 85.4 °F 68.0 °F 62% 29.98 in 6.2 mi SSW 8.1 mph - N/A   Partly Cloudy
5:45 PM 82.4 °F 83.4 °F 62.6 °F 51% 29.98 in 6.2 mi SW 8.1 mph - N/A   Partly Cloudy
6:15 PM 80.6 °F 81.1 °F 59.0 °F 48% 29.95 in 6.2 mi SW 6.9 mph - N/A   Partly Cloudy
6:45 PM 80.6 °F 81.8 °F 62.6 °F 54% 29.95 in 6.2 mi SW 5.8 mph - N/A   Partly Cloudy
7:15 PM 80.6 °F 81.8 °F 62.6 °F 54% 29.95 in 6.2 mi SW 5.8 mph - N/A   Partly Cloudy
7:45 PM 78.8 °F - 66.2 °F 65% 29.95 in 6.2 mi SW 3.5 mph - N/A   Partly Cloudy
8:15 PM 77.0 °F - 66.2 °F 69% 29.95 in 6.2 mi SW 3.5 mph - N/A   Partly Cloudy
8:45 PM 75.2 °F - 68.0 °F 78% 29.98 in - SW 3.5 mph - N/A   Clear
9:15 PM 75.2 °F - 68.0 °F 78% 29.98 in - Calm Calm - N/A   Clear
9:45 PM 73.4 °F - 68.0 °F 83% 29.95 in - East 2.3 mph - N/A   Clear
10:15 PM 73.4 °F - 66.2 °F 78% 29.95 in - East 2.3 mph - N/A   Clear
10:45 PM 71.6 °F - 66.2 °F 83% 29.95 in - East 2.3 mph - N/A   Clear
11:15 PM 71.6 °F - 66.2 °F 83% 29.95 in 6.2 mi ENE 3.5 mph - N/A   Partly Cloudy
11:45 PM 71.6 °F - 66.2 °F 83% 29.95 in 6.2 mi East 3.5 mph - N/A   Partly Cloudy